FEA YSRI-YSSY

Flight info

Callsign FEA
Flight time 0h 9m
Altitude 4000
Route DCT
Aircraft C700/L-SDE3L/L

Departure

Time 2026-05-06 06:44
Airport RAAF Base Richmond (YSRI)

Arrival

Time 2026-05-06 06:54
Airport Sydney Kingsford Smith International Airport (YSSY)
Time Latitude Longitude Altitude Speed Heading
2026-05-06 06:34 -33.60426 150.78816 63 ft 0 kts 194°
2026-05-06 06:40 -33.60428 150.78814 67 ft 1 kts 224°
2026-05-06 06:40 -33.60415 150.78774 65 ft 15 kts 291°
2026-05-06 06:41 -33.60403 150.78568 68 ft 30 kts 274°
2026-05-06 06:41 -33.60356 150.78340 68 ft 27 kts 285°
2026-05-06 06:41 -33.60300 150.78115 67 ft 29 kts 287°
2026-05-06 06:41 -33.60239 150.77875 69 ft 31 kts 287°
2026-05-06 06:42 -33.60186 150.77670 68 ft 13 kts 290°
2026-05-06 06:42 -33.60197 150.77609 72 ft 0 kts 199°
2026-05-06 06:43 -33.60213 150.77604 71 ft 9 kts 194°
2026-05-06 06:43 -33.60295 150.77646 73 ft 19 kts 109°
2026-05-06 06:43 -33.60300 150.77666 72 ft 0 kts 105°
2026-05-06 06:44 -33.60339 150.77816 64 ft 63 kts 108°
2026-05-06 06:44 -33.60586 150.78709 137 ft 155 kts 109°
2026-05-06 06:44 -33.60926 150.79992 1279 ft 168 kts 103°
2026-05-06 06:44 -33.61186 150.81430 2573 ft 181 kts 99°
2026-05-06 06:45 -33.61425 150.82876 4144 ft 169 kts 104°
2026-05-06 06:45 -33.61854 150.84264 4249 ft 202 kts 112°
2026-05-06 06:45 -33.62435 150.85907 4181 ft 227 kts 112°
2026-05-06 06:45 -33.63094 150.87769 4103 ft 256 kts 112°
2026-05-06 06:46 -33.63818 150.89812 4058 ft 272 kts 112°
2026-05-06 06:46 -33.64558 150.91899 4057 ft 276 kts 112°
2026-05-06 06:46 -33.65310 150.94019 4065 ft 274 kts 112°
2026-05-06 06:46 -33.66094 150.96102 4051 ft 272 kts 120°
2026-05-06 06:47 -33.67441 150.97670 4045 ft 273 kts 151°
2026-05-06 06:47 -33.69319 150.98238 4050 ft 292 kts 180°
2026-05-06 06:47 -33.71436 150.97990 4070 ft 317 kts 190°
2026-05-06 06:47 -33.73641 150.97514 4064 ft 325 kts 192°
2026-05-06 06:48 -33.75837 150.97030 4061 ft 324 kts 187°
2026-05-06 06:48 -33.78062 150.97358 4055 ft 325 kts 161°
2026-05-06 06:48 -33.79819 150.98659 4041 ft 262 kts 137°
2026-05-06 06:48 -33.80983 151.00163 4050 ft 232 kts 131°
2026-05-06 06:49 -33.82003 151.01567 3699 ft 212 kts 134°
2026-05-06 06:49 -33.83079 151.02678 3276 ft 195 kts 141°
2026-05-06 06:49 -33.84091 151.03637 2843 ft 176 kts 139°
2026-05-06 06:49 -33.84891 151.04662 2405 ft 163 kts 122°
2026-05-06 06:50 -33.85390 151.05842 2048 ft 155 kts 112°
2026-05-06 06:50 -33.85831 151.07021 2082 ft 156 kts 112°
2026-05-06 06:50 -33.86283 151.08219 2081 ft 159 kts 113°
2026-05-06 06:50 -33.86731 151.09416 2081 ft 159 kts 111°
2026-05-06 06:51 -33.87087 151.10692 2085 ft 163 kts 104°
2026-05-06 06:51 -33.87398 151.12035 2087 ft 169 kts 103°
2026-05-06 06:51 -33.87683 151.13410 2038 ft 172 kts 89°
2026-05-06 06:51 -33.87252 151.14758 2057 ft 171 kts 58°
2026-05-06 06:52 -33.87313 151.15982 2312 ft 150 kts 142°
2026-05-06 06:52 -33.88318 151.16098 1981 ft 140 kts 184°
2026-05-06 06:52 -33.89241 151.16159 1476 ft 132 kts 170°
2026-05-06 06:52 -33.90123 151.16391 994 ft 124 kts 165°
2026-05-06 06:53 -33.90939 151.16607 678 ft 115 kts 163°
2026-05-06 06:53 -33.91695 151.16811 412 ft 110 kts 165°
2026-05-06 06:53 -33.92430 151.17017 180 ft 107 kts 161°
2026-05-06 06:53 -33.93145 151.17209 36 ft 103 kts 162°
2026-05-06 06:54 -33.93662 151.17346 10 ft 34 kts 168°
2026-05-06 06:54 -33.93784 151.17379 10 ft 0 kts 169°
2026-05-06 06:54 -33.93818 151.17392 11 ft 13 kts 152°
2026-05-06 06:54 -33.93837 151.17502 13 ft 15 kts 74°
2026-05-06 06:55 -33.93852 151.17600 13 ft 13 kts 145°
2026-05-06 06:55 -33.93872 151.17643 13 ft 0 kts 89°
2026-05-06 06:56 -33.93855 151.17725 14 ft 20 kts 73°
2026-05-06 06:56 -33.93800 151.17955 23 ft 36 kts 75°
2026-05-06 06:56 -33.93721 151.18292 26 ft 42 kts 73°
2026-05-06 06:57 -33.93647 151.18597 26 ft 16 kts 74°
2026-05-06 06:57 -33.93616 151.18738 25 ft 19 kts 76°
2026-05-06 06:57 -33.93598 151.18898 24 ft 19 kts 95°
2026-05-06 06:57 -33.93554 151.19017 20 ft 13 kts 48°
2026-05-06 06:58 -33.93490 151.19023 24 ft 0 kts 343°